DELTA 1 DEB, 29187

Orbit data source: Space-Track

DELTA 1 DEB, 29187 is space debris in LEO originally from a launch on Thu, 11 Jan 1968 UTC launched from the Air Force Western Test Range (AFWTR). Debris objects in space refer to the collection of defunct objects orbiting the Earth. Examples of debris include non-operational satellites, rocket bodies, and fragments generated from explosions, collisions, or faulty payload assembly.

Loading next visibility...
DELTA 1 DEB details
Identifier
29187, 1968-002L
Orbit
LEO
Last TLE update5 days ago
Origin
Flag of USGSFC (US)
ManufacturerUnknown
MissionSpacecraft
Bus & MotorUnknown
MassUnknown
Launch date (UTC)
1968-01-11 (57 years ago)
Launch vehicleUnknown
Launch site
Air Force Western Test Range (AFWTR)
Object type
Payload
Rocket body
Debris
Shape & HBRUnknown
Radar Cross SectionSmall (<0.1 m²)

Expand to show TLE details & history

TLE from 5 days ago
0 DELTA 1 DEB
1 29187U 68002L   24351.95360061  .00000336  00000-0  12787-2 0  9997
2 29187 105.8035 240.9547 0295894  43.8623 330.3313 12.91034499935842
Epoch: 2024-12-16T22:53Z
Definitive object data (Epoch: 2024-12-16T22:53:11.092Z)
Latitude11.94683°
Longitude168.17373°
Altitude1,103.452 km
Speed7.394 km/s
True Right ascension15h 50m 09s
True Declination11° 52' 50"
Sunlit
Object was in daylight at TLE epoch
Visualization TLE readout
Latitude-67.99146°
Longitude-46.12754°
Altitude1,499.303 km
Speed7.032 km/s
Apparent Right ascension23h 57m 51s
Apparent Declination-56° 41' 28"
Sunlit
Object is in daylight
Visualization observer readout
Local Sidereal Time11:01:29
Azimuth204.078° SW
Elevation-70.869°
Doppler factor1
Orbital elements
Apogee altitude1,522.242 km
Perigee altitude1,068.143 km
Semi-major axis7,673.329 km
Eccentricity0.0295894
Inclination105.8035°
RAAN240.9547°
Arg. of periapsis43.8623°
True anomaly328.59757°
Mean anomaly330.3313°
Eccentric anomaly329.47008°
Mean motion3.229 °/min
BSTAR0.0012787
Orbital period111.49 mins
Loading maneuver chart data...
Loading historical data...
Loading historical data...
Loading historical data...
Loading historical data...
Loading historical data...
Loading historical data...
Loading historical data...

DELTA 1 DEB Visibility forecast

Observer location: undefined°, undefined

Span
Click to sort rows by Start time (UTC) header in descending order
Start Az.
Max El. time (UTC)
Max El. Az.
Max El.
End time (UTC)
End Az.
6 mins2024-12-21 14:36:46.258Z76.817° E2024-12-21 14:39:46.258Z47.112° ENE15.453°2024-12-21 14:42:46.258Z17.2° NNE
11 mins2024-12-21 16:22:46.258Z151.659° SSE2024-12-21 16:27:46.258Z105.944° ESE44.64°2024-12-21 16:33:46.258Z339.161° N
5 mins2024-12-21 18:15:46.258Z241.02° WSW2024-12-21 18:17:46.258Z261.207° W14.132°2024-12-21 18:20:46.258Z290.539° WNW
13 mins2024-12-22 05:52:46.258Z32.513° NE2024-12-22 05:58:46.258Z122.933° SE42.014°2024-12-22 06:05:46.258Z190.505° SSW
10 mins2024-12-22 07:42:46.258Z352.527° N2024-12-22 07:46:46.258Z309.68° NW26.585°2024-12-22 07:52:46.258Z253.529° W
|